Location: Emporia
(38.4040°N, 96.1810°W)
Time: 22:32:06
(UTC-06:00)

Amateur Radio Satellites - All Passes

Search period start: 24 February 2017 22:02
Search period end: 25 February 2017 22:02
Location: Emporia, 38.4040°N, 96.1810°W

Satellite Date Start Highest point End Downlink Frequencies (MHz)
Time Altitude Azimuth
ESTCUBE 1 24 Feb 22:05:41 22:08:50 19° 67° (ENE) 22:11:59 437.505/2401.250
RS-15 24 Feb 22:08:48 22:16:53 19° 352° (N) 22:24:59 29.354- 29.394
DELFI C3 24 Feb 22:09:58 22:13:11 23° 265° (W) 22:16:23 145.870
JUGNU 24 Feb 22:22:38 22:24:13 11° 174° (S) 22:25:46 437.505
UNISAT 6 24 Feb 22:28:50 22:33:33 73° 101° (ESE) 22:38:11 437.425
TIGRISAT 24 Feb 22:29:21 22:34:03 69° 101° (E) 22:38:40 435.000
PRISM 24 Feb 22:31:09 22:34:56 38° 288° (WNW) 22:38:43 437.425
VELOX 1 24 Feb 22:35:18 22:37:09 12° 63° (ENE) 22:38:59 145.980
O/OREOS (USA 219) 24 Feb 22:37:51 22:42:03 43° 106° (ESE) 22:46:19 437.305
YUBILEINY 24 Feb 22:38:53 22:47:25 61° 269° (W) 22:55:52 435.215
SPROUT 24 Feb 22:47:55 22:49:52 13° 65° (ENE) 22:51:51 437.525
NO-84 24 Feb 22:56:46 22:59:06 15° 26° (NNE) 23:01:30 435.350 FM
LO-87 24 Feb 23:04:11 23:07:30 39° 261° (W) 23:10:51 145.935 - 145.965
DUCHIFAT 1 24 Feb 23:26:44 23:29:55 20° 94° (E) 23:33:06 145.980
SO-50 24 Feb 23:32:04 23:36:10 29° 309° (NW) 23:40:14 436.795
50 SAT 24 Feb 23:35:22 23:38:33 33° 73° (ENE) 23:41:43 437.505
EO-79 24 Feb 23:36:19 23:40:09 31° 97° (E) 23:43:57 145.935-145.965
FO-29 24 Feb 23:39:06 23:46:42 69° 288° (WNW) 23:53:33 435.910
ESTCUBE 1 24 Feb 23:41:07 23:45:19 39° 262° (W) 23:49:34 437.505/2401.250
POLYITAN 1 24 Feb 23:53:22 23:57:35 50° 100° (E) 00:01:45 437.675
NANOSAT C BR1 24 Feb 23:53:27 23:57:35 46° 99° (E) 00:01:41 145.865
QB50P2 24 Feb 23:56:17 00:00:32 60° 101° (E) 00:04:45 145.880/145.840
DX 1 25 Feb 00:02:19 00:06:28 49° 73° (ENE) 00:10:39 434.975-435.025
UNISAT 6 25 Feb 00:08:01 00:09:35 12° 298° (WNW) 00:11:09 437.425
AIST 2D 25 Feb 00:08:11 00:11:38 48° 285° (WNW) 00:15:02 435.315
TIGRISAT 25 Feb 00:08:13 00:10:06 12° 297° (WNW) 00:11:58 435.000
VELOX 1 25 Feb 00:08:46 00:13:04 58° 259° (W) 00:17:24 145.980
JUGNU 25 Feb 00:10:34 00:12:18 11° 185° (S) 00:14:02 437.505
PCSat 25 Feb 00:14:41 00:17:31 14° 43° (NE) 00:20:20 145.827
UKube-1 25 Feb 00:15:34 00:19:42 49° 73° (ENE) 00:23:52 .
O/OREOS (USA 219) 25 Feb 00:18:39 00:21:40 18° 303° (WNW) 00:24:43 437.305
SPROUT 25 Feb 00:21:10 00:25:18 52° 260° (W) 00:29:29 437.525
BUGSAT 1 25 Feb 00:25:38 00:29:27 32° 97° (E) 00:33:17 437.445
RS-15 25 Feb 00:25:42 00:35:40 27° 29° (NNE) 00:45:22 29.354- 29.394
NO-84 25 Feb 00:33:16 00:37:26 66° 42° (NE) 00:41:48 435.350 FM
DUCHIFAT 1 25 Feb 01:01:51 01:05:36 31° 290° (WNW) 01:09:21 145.980
SRMSAT 25 Feb 01:08:37 01:10:42 12° 176° (S) 01:12:48 437.500
50 SAT 25 Feb 01:10:22 01:11:47 12° 267° (W) 01:13:12 437.505
Oscar 19 25 Feb 01:11:57 01:16:24 29° 96° (E) 01:20:48 437.125/150
EO-79 25 Feb 01:12:30 01:15:41 21° 292° (WNW) 01:18:52 145.935-145.965
FO-29 25 Feb 01:26:56 01:30:10 13° 307° (NW) 01:33:18 435.910
NANOSAT C BR1 25 Feb 01:30:31 01:32:54 15° 295° (WNW) 01:35:15 145.865
POLYITAN 1 25 Feb 01:30:45 01:32:54 14° 295° (WNW) 01:35:03 437.675
QB50P2 25 Feb 01:34:14 01:35:47 12° 296° (WNW) 01:37:20 145.880/145.840
DX 1 25 Feb 01:40:55 01:42:54 13° 268° (W) 01:44:56 434.975-435.025
ITUPSAT 1 25 Feb 01:42:19 01:46:27 30° 68° (ENE) 01:50:36 437.325
BEESAT 25 Feb 01:49:01 01:53:20 35° 70° (ENE) 01:57:41 436.000
Gurwin Techsat 1B 25 Feb 01:52:32 01:57:32 40° 98° (E) 02:02:30 435.225
UKube-1 25 Feb 01:54:02 01:55:59 13° 268° (W) 01:57:58 .
PCSat 25 Feb 01:56:16 02:01:44 86° 61° (ENE) 02:07:09 145.827
BUGSAT 1 25 Feb 02:01:29 02:04:35 20° 292° (WNW) 02:07:41 437.445
NO-84 25 Feb 02:12:07 02:14:49 16° 237° (WSW) 02:17:33 435.350 FM
MOZHAYETS 4 25 Feb 02:14:53 02:18:25 22° 67° (ENE) 02:21:58
RS-15 25 Feb 02:38:25 02:50:48 74° 56° (ENE) 03:02:35 29.354- 29.394
AO-7 25 Feb 02:49:11 02:55:28 23° 94° (E) 03:01:41 .
KKS-1 25 Feb 02:50:39 02:52:43 13° 64° (ENE) 02:54:48 437.445
Oscar 19 25 Feb 02:51:11 02:55:39 31° 292° (WNW) 03:00:05 437.125/150
SRMSAT 25 Feb 02:57:09 02:58:58 11° 186° (S) 03:00:47 437.500
CUBESAT XI-V 25 Feb 03:14:12 03:16:45 15° 65° (ENE) 03:19:18 437.345
ITUPSAT 1 25 Feb 03:20:09 03:24:12 27° 264° (W) 03:28:18 437.325
ITAMSAT 1 25 Feb 03:23:23 03:28:30 51° 101° (E) 03:33:34 435.822/435.867
STARS 25 Feb 03:25:40 03:27:53 14° 64° (ENE) 03:30:08 437.465
BEESAT 25 Feb 03:27:26 03:31:09 22° 265° (W) 03:34:54 436.000
Gurwin Techsat 1B 25 Feb 03:33:00 03:37:13 25° 294° (WNW) 03:41:27 435.225
AO-85 25 Feb 03:35:00 03:38:25 21° 112° (ESE) 03:41:40 145.980
PCSat 25 Feb 03:42:56 03:44:18 11° 258° (WSW) 03:45:41 145.827
MOZHAYETS 4 25 Feb 03:51:07 03:55:21 34° 263° (W) 03:59:36
M-CUBED/EXP-1 PRIME 25 Feb 04:00:37 04:03:03 20° 65° (ENE) 04:05:29 437.505
KKS-1 25 Feb 04:24:26 04:28:46 56° 260° (W) 04:33:08 437.445
AO-7 25 Feb 04:40:34 04:48:49 71° 292° (WNW) 04:57:02 .
CUBESAT XI-V 25 Feb 04:49:04 04:53:39 55° 260° (W) 04:58:13 437.345
RS-15 25 Feb 04:52:15 05:02:06 31° 258° (WSW) 05:11:39 29.354- 29.394
STARS 25 Feb 04:59:32 05:03:46 52° 260° (W) 05:08:04 437.465
ITAMSAT 1 25 Feb 05:03:55 05:07:32 19° 296° (WNW) 05:11:08 435.822/435.867
DOVE 4 25 Feb 05:12:04 05:12:56 10° 90° (E) 05:13:48 437.250
AO-85 25 Feb 05:14:21 05:18:36 38° 305° (NW) 05:22:36 145.980
LilacSat-2 25 Feb 05:31:32 05:33:05 12° 92° (E) 05:34:38 437.200
M-CUBED/EXP-1 PRIME 25 Feb 05:35:09 05:37:29 18° 259° (W) 05:39:48 437.505
CUTE-I 25 Feb 06:08:34 06:13:27 34° 97° (E) 06:18:17 437.470
SO-50 25 Feb 06:24:29 06:27:49 20° 46° (NE) 06:31:08 436.795
KAITUO 1B 25 Feb 06:24:51 06:28:29 44° 99° (E) 06:32:04 145.475/437.950
XW-2F 25 Feb 06:29:02 06:32:50 63° 101° (E) 06:36:33 145.980 - 146.000
XW-2D 25 Feb 06:33:29 06:37:19 77° 102° (ESE) 06:41:06 145.860 - 145.880
BEESAT 3 25 Feb 06:33:48 06:37:41 87° 305° (NW) 06:41:39 437.485
AO-7 25 Feb 06:35:51 06:40:07 15° 311° (NW) 06:44:24 .
XW-2B 25 Feb 06:38:31 06:42:22 87° 103° (ESE) 06:46:10 145.730 - 145.750
STRAND 1 25 Feb 06:44:03 06:49:06 61° 73° (ENE) 06:54:11 437.568
XW-2A 25 Feb 06:45:21 06:46:47 12° 93° (E) 06:48:13 145.665 - 145.685
DOVE 4 25 Feb 06:46:15 06:50:59 76° 283° (WNW) 06:55:59 437.250
XW-2C 25 Feb 06:47:11 06:51:00 71° 283° (WNW) 06:54:46 145.795 - 145.815
ISS 25 Feb 06:56:47 06:58:29 13° 129° (SE) 07:00:12 437.550
NUDT-PHONESAT 25 Feb 07:00:03 07:03:46 59° 284° (WNW) 07:07:26 437.300
LilacSat-2 25 Feb 07:03:55 07:07:34 40° 287° (WNW) 07:11:09 437.200
BEESAT 2 25 Feb 07:11:27 07:15:24 84° 303° (WNW) 07:19:24 435.950
Tancredo 1 25 Feb 07:21:51 07:24:37 26° 133° (SE) 07:27:24 437.200
CUTE 1.7 + AOD 2 25 Feb 07:26:23 07:30:07 30° 97° (E) 07:33:47 437.475
HO-68 25 Feb 07:29:06 07:35:47 40° 99° (E) 07:42:23 435.675
CUBEBUG 2 25 Feb 07:42:32 07:46:16 23° 94° (E) 07:49:57 437.445
CUTE-I 25 Feb 07:48:47 07:53:21 29° 293° (WNW) 07:57:54 437.470
KAITUO 1B 25 Feb 08:00:46 08:02:04 12° 294° (WNW) 08:03:22 145.475/437.950
SO-50 25 Feb 08:04:12 08:08:30 46° 244° (WSW) 08:12:46 436.795
AAUSAT CUBESAT 2 25 Feb 08:13:53 08:17:36 32° 97° (E) 08:21:17 437.432
XW-2A 25 Feb 08:16:32 08:19:40 32° 287° (WNW) 08:22:46 145.665 - 145.685
UWE-3 25 Feb 08:19:58 08:24:14 34° 97° (E) 08:28:25 435.000/436.395/437.385
SEEDS 25 Feb 08:23:43 08:27:55 85° 283° (WNW) 08:32:03 437.485
STRAND 1 25 Feb 08:25:54 08:28:39 14° 269° (W) 08:31:25 437.568
ISS 25 Feb 08:31:22 08:34:36 56° 324° (NW) 08:37:52 437.550
ZACube-1 25 Feb 08:41:28 08:45:38 34° 96° (E) 08:49:42 437.345
O/OREOS (USA 219) 25 Feb 08:48:56 08:53:31 66° 68° (ENE) 08:58:04 437.305
Tancredo 1 25 Feb 08:57:52 09:00:49 31° 329° (NNW) 09:03:47 437.200
CUTE 1.7 + AOD 2 25 Feb 09:02:36 09:05:45 21° 292° (WNW) 09:08:52 437.475
HO-68 25 Feb 09:16:57 09:23:22 37° 295° (WNW) 09:29:45 435.675
PRISM 25 Feb 09:18:18 09:22:21 69° 257° (WSW) 09:26:26 437.425
CUBEBUG 2 25 Feb 09:18:36 09:22:54 35° 289° (WNW) 09:27:09 437.445
UNISAT 6 25 Feb 09:25:48 09:30:09 51° 73° (ENE) 09:34:37 437.425
TIGRISAT 25 Feb 09:26:12 09:30:29 48° 73° (ENE) 09:34:55 435.000
AO-73 25 Feb 09:29:46 09:34:19 75° 284° (WNW) 09:38:45 145.935
Oscar 11 25 Feb 09:36:43 09:41:02 71° 284° (WNW) 09:45:18 .
YUBILEINY 25 Feb 09:42:07 09:49:40 33° 85° (E) 09:57:11 435.215
DELFI C3 25 Feb 09:47:41 09:51:27 44° 99° (E) 09:55:12 145.870
FO-29 25 Feb 09:47:45 09:54:32 50° 69° (ENE) 10:01:55 435.910
AAUSAT CUBESAT 2 25 Feb 09:49:59 09:52:48 18° 292° (WNW) 09:55:36 437.432
UWE-3 25 Feb 09:56:51 10:00:26 22° 292° (WNW) 10:03:58 435.000/436.395/437.385
ISS 25 Feb 10:10:01 10:11:39 13° 342° (NNW) 10:13:16 437.550
ZACube-1 25 Feb 10:18:14 10:21:39 21° 293° (WNW) 10:25:02 437.345
DUCHIFAT 1 25 Feb 10:18:19 10:20:16 13° 65° (ENE) 10:22:12 145.980
EO-79 25 Feb 10:27:44 10:30:49 20° 68° (ENE) 10:33:55 145.935-145.965
O/OREOS (USA 219) 25 Feb 10:31:21 10:32:17 11° 263° (W) 10:33:13 437.305
LO-87 25 Feb 10:33:21 10:35:42 16° 94° (E) 10:38:03 145.935 - 145.965
AIST 2D 25 Feb 10:40:50 10:44:11 41° 74° (ENE) 10:47:34 435.315
NANOSAT C BR1 25 Feb 10:44:11 10:47:46 28° 70° (ENE) 10:51:22 145.865
POLYITAN 1 25 Feb 10:44:29 10:48:12 31° 70° (ENE) 10:51:58 437.675
QB50P2 25 Feb 10:47:17 10:51:09 35° 71° (ENE) 10:55:02 145.880/145.840
UNISAT 6 25 Feb 11:04:53 11:07:10 14° 269° (W) 11:09:29 437.425
TIGRISAT 25 Feb 11:04:56 11:07:27 15° 269° (W) 11:10:00 435.000
BUGSAT 1 25 Feb 11:14:36 11:17:24 18° 67° (ENE) 11:20:14 437.445
DELFI C3 25 Feb 11:24:07 11:25:50 13° 294° (WNW) 11:27:33 145.870
FO-29 25 Feb 11:33:38 11:39:44 31° 267° (W) 11:46:22 435.910
ESTCUBE 1 25 Feb 11:34:41 11:39:00 47° 99° (E) 11:43:19 437.505/2401.250
YUBILEINY 25 Feb 11:37:34 11:46:03 50° 283° (WNW) 11:54:34 435.215
DUCHIFAT 1 25 Feb 11:51:23 11:55:27 51° 260° (W) 11:59:35 145.980
VELOX 1 25 Feb 12:00:26 12:04:14 28° 97° (E) 12:08:02 145.980
EO-79 25 Feb 12:02:35 12:06:21 31° 263° (W) 12:10:10 145.935-145.965
LO-87 25 Feb 12:06:07 12:09:09 26° 289° (WNW) 12:12:12 145.935 - 145.965
AO-85 25 Feb 12:08:20 12:09:41 11° 44° (NE) 12:11:03 145.980
SPROUT 25 Feb 12:08:32 12:12:16 28° 96° (E) 12:15:58 437.525
NANOSAT C BR1 25 Feb 12:20:09 12:23:26 22° 265° (W) 12:26:46 145.865
POLYITAN 1 25 Feb 12:20:52 12:24:00 20° 266° (W) 12:27:11 437.675
QB50P2 25 Feb 12:24:12 12:27:02 17° 267° (W) 12:29:53 145.880/145.840
Oscar 19 25 Feb 12:27:13 12:31:56 37° 70° (ENE) 12:36:38 437.125/150
50 SAT 25 Feb 12:34:17 12:37:38 45° 100° (E) 12:40:57 437.505
BUGSAT 1 25 Feb 12:48:54 12:52:30 32° 263° (W) 12:56:12 437.445
Gurwin Techsat 1B 25 Feb 13:12:01 13:17:11 55° 72° (ENE) 13:22:22 435.225
ESTCUBE 1 25 Feb 13:12:45 13:15:24 16° 295° (WNW) 13:18:03 437.505/2401.250
ISS 25 Feb 13:24:43 13:26:56 17° 23° (NNE) 13:29:08 437.550
DX 1 25 Feb 13:27:40 13:32:00 69° 286° (WNW) 13:36:20 434.975-435.025
VELOX 1 25 Feb 13:37:00 13:40:33 24° 292° (WNW) 13:44:07 145.980
UKube-1 25 Feb 13:39:38 13:43:57 71° 285° (WNW) 13:48:14 .
SPROUT 25 Feb 13:44:37 13:48:01 23° 291° (WNW) 13:51:25 437.525
AO-7 25 Feb 13:46:36 13:53:35 31° 59° (ENE) 14:00:33 .
AO-85 25 Feb 13:46:38 13:50:31 69° 241° (WSW) 13:54:28 145.980
Tancredo 1 25 Feb 13:50:01 13:52:42 23° 28° (NNE) 13:55:22 437.200
Oscar 19 25 Feb 14:07:11 14:11:18 24° 265° (W) 14:15:27 437.125/150
ITAMSAT 1 25 Feb 14:39:43 14:44:52 68° 74° (ENE) 14:50:04 435.822/435.867
BEESAT 3 25 Feb 14:52:08 14:55:48 32° 53° (NE) 14:59:25 437.485
Gurwin Techsat 1B 25 Feb 14:54:04 14:57:26 17° 268° (W) 15:00:49 435.225
PCSat 25 Feb 14:56:25 14:58:49 13° 103° (ESE) 15:01:13 145.827
ISS 25 Feb 15:00:27 15:03:45 81° 221° (SW) 15:07:00 437.550
ITUPSAT 1 25 Feb 15:21:06 15:25:56 86° 103° (ESE) 15:30:43 437.325
Tancredo 1 25 Feb 15:26:02 15:29:04 38° 225° (SW) 15:32:03 437.200
BEESAT 25 Feb 15:27:37 15:32:25 80° 284° (WNW) 15:37:11 436.000
BEESAT 2 25 Feb 15:30:40 15:34:24 34° 53° (NE) 15:38:06 435.950
AO-7 25 Feb 15:37:36 15:45:49 60° 256° (WSW) 15:54:05 .
MOZHAYETS 4 25 Feb 15:47:04 15:51:38 60° 100° (E) 15:56:08
NO-84 25 Feb 15:53:00 15:54:21 12° 122° (ESE) 15:55:46 435.350 FM
KKS-1 25 Feb 16:16:57 16:20:53 29° 97° (E) 16:24:48 437.445
ITAMSAT 1 25 Feb 16:22:24 16:24:47 13° 269° (W) 16:27:12 435.822/435.867
BEESAT 3 25 Feb 16:30:14 16:33:11 20° 249° (WSW) 16:36:07 437.485
PCSat 25 Feb 16:36:05 16:41:29 75° 297° (WNW) 16:46:56 145.827
CUBESAT XI-V 25 Feb 16:47:04 16:51:24 39° 98° (E) 16:55:41 437.345
STARS 25 Feb 16:50:23 16:54:18 30° 97° (E) 16:58:12 437.465
RS-15 25 Feb 16:58:36 17:09:58 56° 111° (ESE) 17:21:45 29.354- 29.394
ITUPSAT 1 25 Feb 17:02:32 17:03:00 10° 300° (WNW) 17:03:29 437.325
KAITUO 1B 25 Feb 17:04:15 17:06:50 18° 69° (ENE) 17:09:26 145.475/437.950
XW-2F 25 Feb 17:08:48 17:11:55 24° 70° (ENE) 17:15:02 145.980 - 146.000
BEESAT 2 25 Feb 17:09:02 17:11:55 19° 249° (WSW) 17:14:48 435.950
M-CUBED/EXP-1 PRIME 25 Feb 17:13:15 17:16:21 22° 102° (ESE) 17:19:36 437.505
XW-2D 25 Feb 17:13:21 17:16:41 29° 71° (ENE) 17:20:02 145.860 - 145.880
XW-2B 25 Feb 17:18:18 17:21:43 32° 72° (ENE) 17:25:10 145.730 - 145.750
MOZHAYETS 4 25 Feb 17:26:06 17:28:14 13° 296° (WNW) 17:30:22
XW-2C 25 Feb 17:26:43 17:30:20 41° 74° (ENE) 17:34:00 145.795 - 145.815
NO-84 25 Feb 17:28:26 17:31:32 47° 320° (NW) 17:34:55 435.350 FM
CUTE-I 25 Feb 17:28:47 17:33:53 48° 71° (ENE) 17:39:01 437.470
NUDT-PHONESAT 25 Feb 17:37:41 17:41:16 45° 74° (ENE) 17:44:54 437.300
LilacSat-2 25 Feb 17:43:36 17:47:27 73° 76° (ENE) 17:51:21 437.200
DOVE 4 25 Feb 17:50:38 17:54:45 89° 243° (WSW) 17:58:57 437.250
KKS-1 25 Feb 17:53:43 17:57:16 24° 292° (WNW) 18:00:51 437.445
HO-68 25 Feb 17:56:55 18:02:39 27° 61° (ENE) 18:08:24 435.675
CUTE 1.7 + AOD 2 25 Feb 18:18:04 18:21:04 19° 68° (ENE) 18:24:04 437.475
PCSat 25 Feb 18:23:33 18:25:49 12° 318° (NW) 18:28:06 145.827
CUBESAT XI-V 25 Feb 18:25:15 18:28:27 19° 294° (WNW) 18:31:39 437.345
STARS 25 Feb 18:26:59 18:30:28 23° 292° (WNW) 18:33:57 437.465
KAITUO 1B 25 Feb 18:37:19 18:40:38 28° 263° (W) 18:43:58 145.475/437.950
CUBEBUG 2 25 Feb 18:39:58 18:42:37 16° 65° (ENE) 18:45:17 437.445
XW-2F 25 Feb 18:43:02 18:45:59 21° 265° (W) 18:48:57 145.980 - 146.000
XW-2A 25 Feb 18:45:56 18:49:15 56° 75° (ENE) 18:52:37 145.665 - 145.685
M-CUBED/EXP-1 PRIME 25 Feb 18:47:32 18:50:44 26° 294° (WNW) 18:54:07 437.505
XW-2D 25 Feb 18:48:17 18:50:54 17° 266° (W) 18:53:32 145.860 - 145.880
XW-2B 25 Feb 18:53:36 18:55:59 16° 267° (W) 18:58:23 145.730 - 145.750
STRAND 1 25 Feb 18:56:45 19:00:50 23° 95° (E) 19:04:52 437.568
AAUSAT CUBESAT 2 25 Feb 19:03:05 19:06:00 19° 68° (ENE) 19:08:55 437.432
XW-2C 25 Feb 19:03:08 19:04:44 12° 268° (W) 19:06:20 145.795 - 145.815
NO-84 25 Feb 19:09:29 19:10:03 10° 341° (NNW) 19:10:38 435.350 FM
CUTE-I 25 Feb 19:10:21 19:14:09 20° 267° (W) 19:17:59 437.470
RS-15 25 Feb 19:11:16 19:22:42 48° 314° (NW) 19:34:34 29.354- 29.394
SEEDS 25 Feb 19:13:27 19:17:33 51° 75° (ENE) 19:21:40 437.485
NUDT-PHONESAT 25 Feb 19:14:38 19:15:26 11° 269° (W) 19:16:14 437.300
UWE-3 25 Feb 19:15:38 19:19:09 23° 68° (ENE) 19:22:46 435.000/436.395/437.385
ZACube-1 25 Feb 19:35:55 19:39:24 23° 68° (ENE) 19:42:58 437.345
HO-68 25 Feb 19:42:52 19:49:54 58° 258° (WSW) 19:56:58 435.675
CUTE 1.7 + AOD 2 25 Feb 19:52:44 19:56:38 34° 263° (W) 20:00:34 437.475
YUBILEINY 25 Feb 19:55:24 19:59:36 14° 61° (ENE) 20:03:46 435.215
CUBEBUG 2 25 Feb 20:14:30 20:18:44 48° 261° (W) 20:23:11 437.445
AO-73 25 Feb 20:23:03 20:27:27 69° 76° (ENE) 20:31:59 145.935
Oscar 11 25 Feb 20:29:26 20:33:45 71° 76° (ENE) 20:38:07 .
DELFI C3 25 Feb 20:32:12 20:35:12 21° 69° (ENE) 20:38:13 145.870
STRAND 1 25 Feb 20:35:19 20:40:05 38° 290° (WNW) 20:44:48 437.568
AAUSAT CUBESAT 2 25 Feb 20:37:29 20:41:13 32° 263° (W) 20:44:58 437.432
UWE-3 25 Feb 20:51:30 20:55:25 30° 264° (W) 20:59:28 435.000/436.395/437.385
SEEDS 25 Feb 20:51:55 20:53:31 12° 269° (W) 20:55:07 437.485
PRISM 25 Feb 21:02:03 21:04:44 17° 94° (E) 21:07:24 437.425
ZACube-1 25 Feb 21:11:32 21:15:29 31° 264° (W) 21:19:32 437.345
UNISAT 6 25 Feb 21:20:46 21:22:55 13° 90° (E) 21:25:02 437.425
TIGRISAT 25 Feb 21:21:16 21:23:02 12° 90° (E) 21:24:49 435.000
RS-15 25 Feb 21:31:03 21:39:33 20° 345° (NNW) 21:48:07 29.354- 29.394
